Find KUIPER-00519

NORAD ID: 68890 Int'l Des: 2026-095AC Owner: kuiper Country: USA Constellation: kuiper operational
LEOCIRCULAR

Live Position

Loading 3D Globe...

About KUIPER-00519

Description loading...

Upcoming Passes

Passes for default location (London). Set your location on the main map for personalized predictions.

Altitude History

Loading altitude history...

Two-Line Element Set

1 68890U 26095AC 26120.66670139 -.00007585 00000-0 -18886-3 0 9993
2 68890 51.8825 112.1356 0002297 75.9290 108.6576 15.38111144 1309
Epoch: Apr 30, 2026 • Age: 31 hours

Current Status

Altitude 455.9 km
Velocity 7.65 km/s
Sub-Earth Point 50.05°N, 26.08°W
Type internet

Most Searched